User: anonymous   Login
Location: Kuffner-Sternwarte
(48.2130°N, 16.2960°E)
Time: 20:19:03
(UTC+02:00)
Language:

COROT - Orbit

View from above orbital plane
View from above orbital plane
View from above satellite
View from above satellite

Ground track
Ground track

The orbit data is extracted from the following two-line orbital elements,

1 29678U 06063A   18142.70354443 +.00000153 +00000-0 +30947-4 0  9999
2 29678 090.0358 016.5597 0203692 045.7757 315.9971 14.44176812589060
Epoch (UTC): 22 May 2018 16:53:06
Eccentricity: 0.0203692
inclination: 90.0358°
perigee height: 599 km
apogee height: 890 km
right ascension of ascending node: 16.5597°
argument of perigee: 45.7757°
revolutions per day: 14.44176812
mean anomaly at epoch: 315.9971°
orbit number at epoch: 58906

The dashed part of the orbit path shows where the satellite is in the earth's shadow,  

DLR